SWA1608 MMUN-KBWI

Flight info

Callsign SWA1608
Flight time 2h 53m
Altitude 41000
Route OMSUK UM219 MYDIA M219 KNOST Q109 CAMJO Q99 OGRAE DCT GOOOB DCT THHMP RAVNN8
Aircraft B737/M-SADE2E3GIJ4RWZ/LB1D1

Departure

Time 2026-05-04 12:13
Airport Cancún International Airport (MMUN)

Arrival

Time 2026-05-04 15:06
Airport Baltimore/Washington International Thurgood Marshall Airport (KBWI)
Time Latitude Longitude Altitude Speed Heading
2026-05-04 11:38 21.04886 -86.88221 28 ft 0 kts 124°
2026-05-04 12:06 21.04893 -86.88231 28 ft 4 kts 122°
2026-05-04 12:06 21.04905 -86.88257 28 ft 4 kts 104°
2026-05-04 12:06 21.04905 -86.88283 28 ft 4 kts 52°
2026-05-04 12:07 21.04899 -86.88289 28 ft 1 kts 33°
2026-05-04 12:09 21.04914 -86.88278 28 ft 8 kts 33°
2026-05-04 12:10 21.04984 -86.88229 28 ft 13 kts 33°
2026-05-04 12:10 21.05059 -86.88176 28 ft 13 kts 33°
2026-05-04 12:10 21.05132 -86.88123 28 ft 13 kts 33°
2026-05-04 12:10 21.05206 -86.88075 29 ft 12 kts 13°
2026-05-04 12:11 21.05265 -86.88130 29 ft 12 kts 301°
2026-05-04 12:11 21.05310 -86.88203 30 ft 12 kts 317°
2026-05-04 12:11 21.05384 -86.88186 31 ft 11 kts 37°
2026-05-04 12:11 21.05447 -86.88139 32 ft 11 kts 37°
2026-05-04 12:12 21.05429 -86.88068 33 ft 12 kts 123°
2026-05-04 12:12 21.05247 -86.87773 34 ft 86 kts 123°
2026-05-04 12:12 21.04784 -86.87028 34 ft 151 kts 123°
2026-05-04 12:12 21.04162 -86.86016 533 ft 161 kts 123°
2026-05-04 12:13 21.03570 -86.85082 1439 ft 149 kts 122°
2026-05-04 12:14 21.00017 -86.75278 4971 ft 271 kts 62°
2026-05-04 12:15 21.01266 -86.73762 5739 ft 277 kts 33°
2026-05-04 12:15 21.03078 -86.73096 6580 ft 280 kts
2026-05-04 12:15 21.05004 -86.73344 7435 ft 282 kts 342°
2026-05-04 12:15 21.06822 -86.74147 8329 ft 284 kts 334°
2026-05-04 12:16 21.08589 -86.75127 9239 ft 288 kts 327°
2026-05-04 12:16 21.10215 -86.76384 10166 ft 290 kts 318°
2026-05-04 12:16 21.11647 -86.77940 10665 ft 309 kts 308°
2026-05-04 12:16 21.12519 -86.79237 10802 ft 326 kts 303°
2026-05-04 12:17 21.14801 -86.81409 11638 ft 342 kts 333°
2026-05-04 12:17 21.17090 -86.82130 12569 ft 346 kts 349°
2026-05-04 12:17 21.19520 -86.82073 13435 ft 355 kts
2026-05-04 12:17 21.21959 -86.81573 14206 ft 360 kts
2026-05-04 12:18 21.24425 -86.80985 14883 ft 366 kts
2026-05-04 12:18 21.26083 -86.80581 15332 ft 370 kts
2026-05-04 12:18 21.28639 -86.79967 16058 ft 374 kts
2026-05-04 12:18 21.31201 -86.79366 16784 ft 378 kts
2026-05-04 12:19 21.33750 -86.78781 17477 ft 382 kts
2026-05-04 12:19 21.36372 -86.78187 18163 ft 387 kts
2026-05-04 12:19 21.39021 -86.77589 18783 ft 391 kts
2026-05-04 12:19 21.41681 -86.76989 19469 ft 391 kts
2026-05-04 12:20 21.44346 -86.76387 20152 ft 392 kts
2026-05-04 12:20 21.47023 -86.75776 20797 ft 394 kts
2026-05-04 12:20 21.49711 -86.75160 21428 ft 396 kts
2026-05-04 12:20 21.52416 -86.74539 22054 ft 398 kts
2026-05-04 12:21 21.55130 -86.73915 22662 ft 400 kts
2026-05-04 12:21 21.57863 -86.73287 23266 ft 403 kts
2026-05-04 12:21 21.60616 -86.72654 23801 ft 405 kts
2026-05-04 12:21 21.63391 -86.72017 24230 ft 409 kts
2026-05-04 12:22 21.66184 -86.71375 24644 ft 413 kts
2026-05-04 12:22 21.69005 -86.70726 25070 ft 416 kts
2026-05-04 12:22 21.71854 -86.70071 25500 ft 420 kts
2026-05-04 12:22 21.74719 -86.69411 25931 ft 423 kts
2026-05-04 12:23 21.77608 -86.68744 26367 ft 426 kts
2026-05-04 12:23 21.80514 -86.68075 26793 ft 429 kts
2026-05-04 12:23 21.83451 -86.67398 27197 ft 432 kts
2026-05-04 12:23 21.86405 -86.66718 27599 ft 436 kts
2026-05-04 12:24 21.89378 -86.66033 27998 ft 439 kts
2026-05-04 12:24 21.92372 -86.65344 28395 ft 442 kts
2026-05-04 12:24 21.95387 -86.64649 28787 ft 445 kts
2026-05-04 12:24 21.98423 -86.63948 29166 ft 448 kts
2026-05-04 12:25 22.01469 -86.63245 29517 ft 451 kts
2026-05-04 12:25 22.04549 -86.62534 29893 ft 454 kts
2026-05-04 12:25 22.07647 -86.61817 30232 ft 457 kts
2026-05-04 12:25 22.10762 -86.61097 30536 ft 459 kts
2026-05-04 12:26 22.13893 -86.60372 30849 ft 461 kts
2026-05-04 12:26 22.17038 -86.59643 31138 ft 464 kts
2026-05-04 12:26 22.20198 -86.58912 31414 ft 466 kts
2026-05-04 12:26 22.23381 -86.58174 31695 ft 469 kts
2026-05-04 12:27 22.26578 -86.57432 32012 ft 470 kts
2026-05-04 12:27 22.29767 -86.56691 32424 ft 469 kts
2026-05-04 12:27 22.32948 -86.55952 32875 ft 467 kts
2026-05-04 12:27 22.36118 -86.55215 33317 ft 465 kts
2026-05-04 12:28 22.39242 -86.54491 33700 ft 465 kts
2026-05-04 12:28 22.42447 -86.53747 34079 ft 465 kts
2026-05-04 12:28 22.45568 -86.53023 34406 ft 464 kts
2026-05-04 12:28 22.48730 -86.52289 34680 ft 465 kts
2026-05-04 12:29 22.51898 -86.51554 34946 ft 466 kts
2026-05-04 12:29 22.55073 -86.50817 35222 ft 467 kts
2026-05-04 12:29 22.58250 -86.50078 35498 ft 467 kts
2026-05-04 12:29 22.61429 -86.49338 35749 ft 468 kts
2026-05-04 12:30 22.64619 -86.48595 36016 ft 469 kts
2026-05-04 12:30 22.67807 -86.47852 36276 ft 469 kts
2026-05-04 12:30 22.71000 -86.47107 36528 ft 470 kts
2026-05-04 12:30 22.74200 -86.46361 36764 ft 471 kts
2026-05-04 12:31 22.77400 -86.45615 37007 ft 471 kts
2026-05-04 12:31 22.80609 -86.44867 37241 ft 472 kts
2026-05-04 12:31 22.83818 -86.44120 37478 ft 472 kts
2026-05-04 12:31 22.87033 -86.43370 37690 ft 474 kts
2026-05-04 12:32 22.90261 -86.42617 37926 ft 474 kts
2026-05-04 12:32 22.96716 -86.41109 38379 ft 475 kts
2026-05-04 12:32 22.99949 -86.40353 38589 ft 476 kts
2026-05-04 12:33 23.03186 -86.39596 38788 ft 476 kts
2026-05-04 12:33 23.06422 -86.38838 39012 ft 475 kts
2026-05-04 12:33 23.09654 -86.38079 39268 ft 474 kts
2026-05-04 12:33 23.12828 -86.37334 39514 ft 472 kts
2026-05-04 12:34 23.16036 -86.36582 39722 ft 472 kts
2026-05-04 12:34 23.19246 -86.35830 39918 ft 471 kts
2026-05-04 12:34 23.22446 -86.35080 40139 ft 471 kts
2026-05-04 12:34 23.25642 -86.34330 40373 ft 469 kts
2026-05-04 12:35 23.28834 -86.33580 40581 ft 468 kts
2026-05-04 12:35 23.32014 -86.32833 40774 ft 468 kts
2026-05-04 12:35 23.35195 -86.32086 40949 ft 467 kts
2026-05-04 12:36 23.41578 -86.30588 41013 ft 470 kts
2026-05-04 12:36 23.47939 -86.29088 41021 ft 466 kts
2026-05-04 12:37 23.54261 -86.27595 41021 ft 463 kts
2026-05-04 12:37 23.60549 -86.26112 41022 ft 461 kts
2026-05-04 12:38 23.66812 -86.24634 41028 ft 460 kts
2026-05-04 12:38 23.73076 -86.23155 41036 ft 460 kts
2026-05-04 12:39 23.79343 -86.21674 41036 ft 461 kts
2026-05-04 12:39 23.85623 -86.20187 41036 ft 463 kts
2026-05-04 12:40 23.91881 -86.18703 41039 ft 464 kts
2026-05-04 12:40 23.98198 -86.17203 41035 ft 465 kts
2026-05-04 12:41 24.04510 -86.15439 41029 ft 477 kts 12°
2026-05-04 12:41 24.07557 -86.13875 41034 ft 488 kts 19°
2026-05-04 12:41 24.10526 -86.12055 41045 ft 490 kts 21°
2026-05-04 12:42 24.16427 -86.08283 41039 ft 491 kts 21°
2026-05-04 12:42 24.22329 -86.04538 41033 ft 490 kts 21°
2026-05-04 12:43 24.28244 -86.00847 41036 ft 488 kts 20°
2026-05-04 12:43 24.34152 -85.97184 41036 ft 487 kts 20°
2026-05-04 12:44 24.40043 -85.93529 41040 ft 486 kts 20°
2026-05-04 12:44 24.45922 -85.89874 41038 ft 485 kts 20°
2026-05-04 12:45 24.51783 -85.86224 41039 ft 484 kts 20°
2026-05-04 12:45 24.57638 -85.82573 41038 ft 483 kts 20°
2026-05-04 12:46 24.63484 -85.78925 41044 ft 483 kts 20°
2026-05-04 12:46 24.69321 -85.75279 41048 ft 483 kts 20°
2026-05-04 12:47 24.75158 -85.71628 41047 ft 482 kts 20°
2026-05-04 12:47 24.80954 -85.67999 41049 ft 482 kts 20°
2026-05-04 12:48 24.86789 -85.64342 41044 ft 483 kts 20°
2026-05-04 12:48 24.92621 -85.60681 41050 ft 483 kts 20°
2026-05-04 12:49 24.98457 -85.57014 41046 ft 483 kts 20°
2026-05-04 12:49 25.04290 -85.53346 41048 ft 483 kts 20°
2026-05-04 12:50 25.10122 -85.49673 41047 ft 483 kts 20°
2026-05-04 12:50 25.15925 -85.46010 41049 ft 483 kts 20°
2026-05-04 12:51 25.21751 -85.42325 41046 ft 483 kts 20°
2026-05-04 12:51 25.27581 -85.38634 41047 ft 482 kts 20°
2026-05-04 12:52 25.33491 -85.35290 41042 ft 468 kts
2026-05-04 12:52 25.36572 -85.34280 41047 ft 456 kts
2026-05-04 12:52 25.39660 -85.33797 41051 ft 445 kts 354°
2026-05-04 12:53 25.45819 -85.33225 41055 ft 444 kts 354°
2026-05-04 12:53 25.51977 -85.32651 41049 ft 445 kts 354°
2026-05-04 12:54 25.58148 -85.32035 41054 ft 445 kts 354°
2026-05-04 12:54 25.64323 -85.31400 41053 ft 446 kts 354°
2026-05-04 12:55 25.70462 -85.30765 41051 ft 446 kts 354°
2026-05-04 12:55 25.76648 -85.30126 41053 ft 446 kts 354°
2026-05-04 12:56 25.82816 -85.29489 41055 ft 447 kts 354°
2026-05-04 12:56 25.89007 -85.28849 41053 ft 447 kts 354°
2026-05-04 12:57 25.95194 -85.28209 41052 ft 447 kts 354°
2026-05-04 12:57 26.01382 -85.27568 41058 ft 446 kts 354°
2026-05-04 12:58 26.07568 -85.26925 41048 ft 446 kts 354°
2026-05-04 12:58 26.13750 -85.26277 41060 ft 446 kts 354°
2026-05-04 12:59 26.19919 -85.25630 41058 ft 445 kts 354°
2026-05-04 12:59 26.26091 -85.24983 41059 ft 445 kts 355°
2026-05-04 13:00 26.32256 -85.24335 41063 ft 445 kts 354°
2026-05-04 13:00 26.38422 -85.23553 41054 ft 453 kts
2026-05-04 13:00 26.41495 -85.22580 41066 ft 464 kts
2026-05-04 13:01 26.44537 -85.21365 41065 ft 466 kts 10°
2026-05-04 13:01 26.50607 -85.18808 41067 ft 466 kts 10°
2026-05-04 13:02 26.56680 -85.16272 41066 ft 465 kts 10°
2026-05-04 13:02 26.62761 -85.13783 41068 ft 465 kts
2026-05-04 13:03 26.68802 -85.11330 41070 ft 465 kts
2026-05-04 13:03 26.74885 -85.08858 41066 ft 465 kts
2026-05-04 13:04 26.80972 -85.06380 41067 ft 465 kts
2026-05-04 13:04 26.87100 -85.03880 41064 ft 466 kts
2026-05-04 13:05 26.93148 -85.01410 41067 ft 466 kts
2026-05-04 13:05 26.99234 -84.98922 41067 ft 466 kts
2026-05-04 13:06 27.05324 -84.96430 41062 ft 466 kts
2026-05-04 13:06 27.11413 -84.93935 41067 ft 466 kts 10°
2026-05-04 13:07 27.16516 -84.91841 41071 ft 466 kts 10°
2026-05-04 13:07 27.22613 -84.89337 41070 ft 466 kts 10°
2026-05-04 13:08 27.28713 -84.86829 41070 ft 467 kts 10°
2026-05-04 13:08 27.34777 -84.84333 41070 ft 467 kts 10°
2026-05-04 13:09 27.40878 -84.81818 41071 ft 467 kts 10°
2026-05-04 13:09 27.46917 -84.79008 41038 ft 484 kts 25°
2026-05-04 13:09 27.49542 -84.76545 41082 ft 500 kts 41°
2026-05-04 13:10 27.51551 -84.73290 41055 ft 514 kts 60°
2026-05-04 13:10 27.54344 -84.65871 41059 ft 516 kts 64°
2026-05-04 13:11 27.57006 -84.58376 41065 ft 514 kts 63°
2026-05-04 13:11 27.59739 -84.50931 41064 ft 513 kts 63°
2026-05-04 13:12 27.62524 -84.43520 41072 ft 513 kts 62°
2026-05-04 13:12 27.65319 -84.36108 41075 ft 514 kts 62°
2026-05-04 13:13 27.68110 -84.28680 41078 ft 515 kts 62°
2026-05-04 13:13 27.70896 -84.21238 41080 ft 515 kts 63°
2026-05-04 13:14 27.73682 -84.13777 41084 ft 516 kts 63°
2026-05-04 13:14 27.76467 -84.06305 41082 ft 517 kts 63°
2026-05-04 13:15 27.79253 -83.98815 41082 ft 517 kts 63°
2026-05-04 13:15 27.82033 -83.91326 41081 ft 517 kts 63°
2026-05-04 13:16 27.84813 -83.83826 41083 ft 517 kts 63°
2026-05-04 13:16 27.87587 -83.76324 41080 ft 517 kts 63°
2026-05-04 13:17 27.90338 -83.68872 41081 ft 517 kts 63°
2026-05-04 13:17 27.93100 -83.61374 41079 ft 516 kts 63°
2026-05-04 13:18 27.95857 -83.53875 41087 ft 516 kts 63°
2026-05-04 13:18 27.98844 -83.46559 41049 ft 504 kts 47°
2026-05-04 13:18 28.01166 -83.43694 41113 ft 486 kts 31°
2026-05-04 13:19 28.03901 -83.41543 41086 ft 473 kts 18°
2026-05-04 13:19 28.06898 -83.40159 41097 ft 459 kts
2026-05-04 13:19 28.09985 -83.39238 41109 ft 460 kts
2026-05-04 13:20 28.16218 -83.37557 41100 ft 461 kts
2026-05-04 13:20 28.22477 -83.35846 41094 ft 463 kts
2026-05-04 13:21 28.28736 -83.34068 41091 ft 463 kts
2026-05-04 13:21 28.34972 -83.32266 41094 ft 462 kts
2026-05-04 13:22 28.41180 -83.30467 41099 ft 459 kts
2026-05-04 13:22 28.47362 -83.28677 41099 ft 457 kts
2026-05-04 13:23 28.53515 -83.26895 41101 ft 455 kts
2026-05-04 13:23 28.59642 -83.25119 41101 ft 454 kts
2026-05-04 13:24 28.65711 -83.23358 41113 ft 452 kts
2026-05-04 13:24 28.71802 -83.21588 41110 ft 451 kts
2026-05-04 13:25 28.80927 -83.18933 41109 ft 451 kts
2026-05-04 13:25 28.87012 -83.17160 41113 ft 451 kts
2026-05-04 13:26 28.93100 -83.15384 41120 ft 452 kts
2026-05-04 13:26 28.99198 -83.13602 41125 ft 453 kts
2026-05-04 13:27 29.05306 -83.11815 41125 ft 453 kts
2026-05-04 13:27 29.11421 -83.10023 41124 ft 454 kts
2026-05-04 13:28 29.17538 -83.08228 41130 ft 454 kts
2026-05-04 13:28 29.23662 -83.06430 41129 ft 454 kts
2026-05-04 13:29 29.29789 -83.04638 41130 ft 454 kts
2026-05-04 13:29 29.35917 -83.02863 41133 ft 454 kts
2026-05-04 13:30 29.42034 -83.01087 41132 ft 453 kts
2026-05-04 13:30 29.48104 -82.99319 41134 ft 453 kts
2026-05-04 13:31 29.54209 -82.97535 41131 ft 452 kts
2026-05-04 13:31 29.60300 -82.95729 41134 ft 452 kts
2026-05-04 13:32 29.66384 -82.93920 41136 ft 451 kts
2026-05-04 13:32 29.72464 -82.92113 41138 ft 451 kts
2026-05-04 13:33 29.78537 -82.90307 41141 ft 451 kts
2026-05-04 13:33 29.84610 -82.88498 41147 ft 451 kts
2026-05-04 13:34 29.90678 -82.86688 41150 ft 451 kts
2026-05-04 13:34 29.96750 -82.84876 41149 ft 450 kts
2026-05-04 13:35 30.05849 -82.82155 41155 ft 450 kts
2026-05-04 13:36 30.11909 -82.80339 41158 ft 450 kts
2026-05-04 13:36 30.17966 -82.78522 41152 ft 450 kts
2026-05-04 13:37 30.24026 -82.76702 41156 ft 450 kts
2026-05-04 13:37 30.30084 -82.74880 41159 ft 450 kts
2026-05-04 13:38 30.36099 -82.73068 41157 ft 449 kts
2026-05-04 13:38 30.42150 -82.71243 41170 ft 449 kts
2026-05-04 13:39 30.48197 -82.69418 41176 ft 449 kts
2026-05-04 13:39 30.54253 -82.67774 41175 ft 444 kts 360°
2026-05-04 13:40 30.60315 -82.66523 41177 ft 442 kts 359°
2026-05-04 13:40 30.66369 -82.65305 41177 ft 442 kts 359°
2026-05-04 13:41 30.72423 -82.64041 41168 ft 442 kts 359°
2026-05-04 13:41 30.78482 -82.62754 41165 ft 442 kts 359°
2026-05-04 13:42 30.87564 -82.60817 41162 ft 442 kts 359°
2026-05-04 13:42 30.93581 -82.59533 41161 ft 442 kts 359°
2026-05-04 13:43 30.99639 -82.58239 41159 ft 443 kts 359°
2026-05-04 13:43 31.05697 -82.56944 41159 ft 443 kts 360°
2026-05-04 13:44 31.11685 -82.54679 41157 ft 466 kts 16°
2026-05-04 13:44 31.17457 -82.51164 41160 ft 469 kts 18°
2026-05-04 13:45 31.23208 -82.47557 41163 ft 469 kts 18°
2026-05-04 13:45 31.28970 -82.43999 41162 ft 469 kts 17°
2026-05-04 13:46 31.34749 -82.40473 41160 ft 469 kts 17°
2026-05-04 13:46 31.40535 -82.36949 41156 ft 469 kts 17°
2026-05-04 13:47 31.46324 -82.33417 41146 ft 469 kts 18°
2026-05-04 13:47 31.52108 -82.29880 41144 ft 469 kts 18°
2026-05-04 13:48 31.57894 -82.26337 41144 ft 469 kts 18°
2026-05-04 13:48 31.63679 -82.22789 41143 ft 469 kts 18°
2026-05-04 13:49 31.69469 -82.19233 41148 ft 470 kts 18°
2026-05-04 13:49 31.75260 -82.15672 41156 ft 470 kts 18°
2026-05-04 13:50 31.81049 -82.12106 41155 ft 470 kts 18°
2026-05-04 13:50 31.86837 -82.08536 41160 ft 470 kts 18°
2026-05-04 13:51 31.92623 -82.04963 41163 ft 470 kts 19°
2026-05-04 13:51 31.98369 -82.01408 41160 ft 470 kts 19°
2026-05-04 13:52 32.07043 -81.96032 41148 ft 470 kts 19°
2026-05-04 13:53 32.12827 -81.92442 41150 ft 470 kts 19°
2026-05-04 13:53 32.18635 -81.88913 41152 ft 468 kts 18°
2026-05-04 13:54 32.27398 -81.83814 41154 ft 468 kts 18°
2026-05-04 13:55 32.36158 -81.78691 41134 ft 468 kts 18°
2026-05-04 13:55 32.44912 -81.73532 41127 ft 469 kts 18°
2026-05-04 13:56 32.50744 -81.70088 41136 ft 468 kts 18°
2026-05-04 13:57 32.58549 -81.65471 41161 ft 468 kts 18°
2026-05-04 13:58 32.70154 -81.58590 41160 ft 468 kts 19°
2026-05-04 13:58 32.78896 -81.53394 41156 ft 468 kts 19°
2026-05-04 13:59 32.84721 -81.49926 41146 ft 468 kts 19°
2026-05-04 14:00 32.93450 -81.44717 41139 ft 468 kts 19°
2026-05-04 14:00 33.02175 -81.39501 41143 ft 468 kts 19°
2026-05-04 14:01 33.07994 -81.36015 41142 ft 468 kts 19°
2026-05-04 14:02 33.16720 -81.30778 41147 ft 468 kts 19°
2026-05-04 14:02 33.22541 -81.27278 41151 ft 468 kts 19°
2026-05-04 14:03 33.28358 -81.23775 41148 ft 468 kts 19°
2026-05-04 14:03 33.34171 -81.20270 41147 ft 469 kts 19°
2026-05-04 14:04 33.42902 -81.14994 41136 ft 469 kts 19°
2026-05-04 14:04 33.48684 -81.11493 41143 ft 469 kts 19°
2026-05-04 14:05 33.57452 -81.06175 41143 ft 469 kts 19°
2026-05-04 14:06 33.63236 -81.02661 41137 ft 469 kts 19°
2026-05-04 14:06 33.69059 -80.99116 41129 ft 469 kts 20°
2026-05-04 14:07 33.74878 -80.95569 41112 ft 469 kts 20°
2026-05-04 14:07 33.80694 -80.92018 41118 ft 469 kts 20°
2026-05-04 14:08 33.86437 -80.88260 41099 ft 476 kts 29°
2026-05-04 14:08 33.91692 -80.83333 41115 ft 480 kts 33°
2026-05-04 14:09 33.99515 -80.75837 41117 ft 479 kts 31°
2026-05-04 14:10 34.07414 -80.68458 41114 ft 479 kts 31°
2026-05-04 14:10 34.12686 -80.63524 41131 ft 479 kts 31°
2026-05-04 14:11 34.17938 -80.58593 41141 ft 478 kts 31°
2026-05-04 14:11 34.25815 -80.51183 41139 ft 478 kts 32°
2026-05-04 14:12 34.31086 -80.46284 41138 ft 478 kts 31°
2026-05-04 14:13 34.39018 -80.38968 41131 ft 478 kts 31°
2026-05-04 14:13 34.44296 -80.34077 41111 ft 477 kts 31°
2026-05-04 14:14 34.49567 -80.29179 41119 ft 478 kts 31°
2026-05-04 14:14 34.57476 -80.21815 41121 ft 478 kts 31°
2026-05-04 14:15 34.68020 -80.11968 41119 ft 478 kts 31°
2026-05-04 14:16 34.75953 -80.04589 41126 ft 479 kts 31°
2026-05-04 14:17 34.83881 -79.97292 41119 ft 478 kts 30°
2026-05-04 14:18 34.91981 -79.90205 41122 ft 478 kts 29°
2026-05-04 14:19 35.02767 -79.80695 41118 ft 479 kts 30°
2026-05-04 14:19 35.08198 -79.75877 41107 ft 479 kts 30°
2026-05-04 14:20 35.13564 -79.71113 41089 ft 479 kts 30°
2026-05-04 14:20 35.18972 -79.66364 41085 ft 478 kts 28°
2026-05-04 14:21 35.27160 -79.59403 41109 ft 478 kts 28°
2026-05-04 14:21 35.32618 -79.54748 41117 ft 478 kts 28°
2026-05-04 14:22 35.38069 -79.50072 41116 ft 478 kts 28°
2026-05-04 14:22 35.43515 -79.45387 41116 ft 479 kts 28°
2026-05-04 14:23 35.51660 -79.38368 41110 ft 479 kts 28°
2026-05-04 14:24 35.57117 -79.33655 41111 ft 480 kts 28°
2026-05-04 14:24 35.62578 -79.28931 41108 ft 480 kts 28°
2026-05-04 14:25 35.68046 -79.24192 41109 ft 481 kts 28°
2026-05-04 14:25 35.76095 -79.16757 41093 ft 490 kts 39°
2026-05-04 14:26 35.80790 -79.10645 41104 ft 492 kts 42°
2026-05-04 14:26 35.85416 -79.04408 41099 ft 493 kts 42°
2026-05-04 14:27 35.90072 -78.98207 41096 ft 493 kts 41°
2026-05-04 14:27 35.94754 -78.92030 41102 ft 493 kts 41°
2026-05-04 14:28 35.99437 -78.85859 41098 ft 493 kts 41°
2026-05-04 14:28 36.04117 -78.79677 41099 ft 492 kts 41°
2026-05-04 14:29 36.12850 -78.68101 41096 ft 492 kts 41°
2026-05-04 14:30 36.17508 -78.61909 41087 ft 491 kts 42°
2026-05-04 14:31 36.22480 -78.55288 41079 ft 491 kts 42°
2026-05-04 14:32 36.31757 -78.42897 41087 ft 490 kts 42°
2026-05-04 14:32 36.36386 -78.36697 41084 ft 490 kts 42°
2026-05-04 14:33 36.41004 -78.30570 41074 ft 487 kts 39°
2026-05-04 14:33 36.46261 -78.25424 41093 ft 479 kts 30°
2026-05-04 14:34 36.51709 -78.20665 41108 ft 479 kts 29°
2026-05-04 14:34 36.57152 -78.15878 41122 ft 480 kts 30°
2026-05-04 14:35 36.62578 -78.11027 41133 ft 480 kts 30°
2026-05-04 14:35 36.67999 -78.06140 41133 ft 481 kts 30°
2026-05-04 14:36 36.73418 -78.01244 41132 ft 482 kts 30°
2026-05-04 14:36 36.78844 -77.96335 41125 ft 482 kts 30°
2026-05-04 14:37 36.84271 -77.91419 41082 ft 482 kts 31°
2026-05-04 14:37 36.89697 -77.86494 41079 ft 482 kts 31°
2026-05-04 14:38 36.95123 -77.81561 41067 ft 482 kts 31°
2026-05-04 14:38 37.00544 -77.76624 41069 ft 482 kts 31°
2026-05-04 14:39 37.06002 -77.71648 39863 ft 495 kts 31°
2026-05-04 14:39 37.08778 -77.69114 39247 ft 493 kts 31°
2026-05-04 14:39 37.11530 -77.66593 38799 ft 487 kts 31°
2026-05-04 14:40 37.17032 -77.61552 36944 ft 488 kts 30°
2026-05-04 14:40 37.19755 -77.59050 36394 ft 481 kts 30°
2026-05-04 14:40 37.22460 -77.56566 35434 ft 483 kts 30°
2026-05-04 14:40 37.25127 -77.54116 34789 ft 479 kts 30°
2026-05-04 14:41 37.27800 -77.51656 33823 ft 479 kts 30°
2026-05-04 14:41 37.30505 -77.49171 32711 ft 481 kts 29°
2026-05-04 14:41 37.35787 -77.44295 31511 ft 466 kts 29°
2026-05-04 14:42 37.40955 -77.39524 30274 ft 456 kts 28°
2026-05-04 14:42 37.43495 -77.37178 29554 ft 451 kts 29°
2026-05-04 14:42 37.46007 -77.34855 28878 ft 445 kts 29°
2026-05-04 14:43 37.48516 -77.32639 28230 ft 433 kts 22°
2026-05-04 14:43 37.51228 -77.31277 27621 ft 410 kts
2026-05-04 14:43 37.53992 -77.30586 26996 ft 401 kts
2026-05-04 14:43 37.56730 -77.29987 26369 ft 397 kts
2026-05-04 14:44 37.59441 -77.29396 25758 ft 393 kts
2026-05-04 14:44 37.61253 -77.28989 25346 ft 391 kts
2026-05-04 14:44 37.63918 -77.28372 24745 ft 387 kts
2026-05-04 14:44 37.66555 -77.27744 24150 ft 384 kts
2026-05-04 14:45 37.69142 -77.27122 23548 ft 382 kts
2026-05-04 14:45 37.71749 -77.26492 23241 ft 383 kts
2026-05-04 14:45 37.74366 -77.25829 23120 ft 383 kts
2026-05-04 14:45 37.76970 -77.25149 23076 ft 381 kts
2026-05-04 14:46 37.79563 -77.24469 23077 ft 381 kts
2026-05-04 14:46 37.82165 -77.23789 23070 ft 382 kts
2026-05-04 14:46 37.84764 -77.23113 23070 ft 382 kts
2026-05-04 14:46 37.87367 -77.22437 23070 ft 382 kts
2026-05-04 14:47 37.89966 -77.21763 23065 ft 382 kts
2026-05-04 14:47 37.92578 -77.21085 22743 ft 384 kts
2026-05-04 14:47 37.95180 -77.20407 22411 ft 380 kts
2026-05-04 14:47 37.97749 -77.19736 22080 ft 375 kts
2026-05-04 14:48 38.00302 -77.19072 21773 ft 374 kts
2026-05-04 14:48 38.02847 -77.18409 21462 ft 373 kts
2026-05-04 14:48 38.05383 -77.17749 21151 ft 372 kts
2026-05-04 14:48 38.07920 -77.17087 20726 ft 374 kts
2026-05-04 14:49 38.10472 -77.16422 20273 ft 375 kts
2026-05-04 14:49 38.13024 -77.15754 19808 ft 373 kts
2026-05-04 14:49 38.15553 -77.15090 19358 ft 369 kts
2026-05-04 14:49 38.18057 -77.14433 18907 ft 365 kts
2026-05-04 14:50 38.20529 -77.13785 18462 ft 360 kts
2026-05-04 14:50 38.22971 -77.13144 17991 ft 357 kts
2026-05-04 14:50 38.25388 -77.12511 17557 ft 353 kts
2026-05-04 14:50 38.27780 -77.11883 17143 ft 349 kts
2026-05-04 14:51 38.30144 -77.11262 16758 ft 345 kts
2026-05-04 14:51 38.32495 -77.10645 16365 ft 345 kts
2026-05-04 14:51 38.34847 -77.10028 15974 ft 345 kts
2026-05-04 14:51 38.37150 -77.09107 15552 ft 355 kts 22°
2026-05-04 14:52 38.39241 -77.07391 15190 ft 357 kts 30°
2026-05-04 14:52 38.41259 -77.05556 14776 ft 356 kts 31°
2026-05-04 14:52 38.43231 -77.03741 14381 ft 352 kts 31°
2026-05-04 14:52 38.45210 -77.01934 13992 ft 348 kts 30°
2026-05-04 14:53 38.47181 -77.00155 13567 ft 346 kts 30°
2026-05-04 14:53 38.49145 -76.98396 13146 ft 344 kts 30°
2026-05-04 14:53 38.51098 -76.96654 12745 ft 341 kts 30°
2026-05-04 14:53 38.53033 -76.94928 12341 ft 338 kts 30°
2026-05-04 14:54 38.54952 -76.93200 11961 ft 337 kts 33°
2026-05-04 14:54 38.56730 -76.91248 11638 ft 337 kts 39°
2026-05-04 14:54 38.58435 -76.89192 11321 ft 338 kts 40°
2026-05-04 14:54 38.60135 -76.87109 11000 ft 340 kts 40°
2026-05-04 14:55 38.61845 -76.85022 10672 ft 338 kts 40°
2026-05-04 14:55 38.63528 -76.82981 10352 ft 329 kts 40°
2026-05-04 14:55 38.65169 -76.81003 10043 ft 320 kts 40°
2026-05-04 14:55 38.66753 -76.79097 9962 ft 304 kts 40°
2026-05-04 14:56 38.68301 -76.77239 9472 ft 304 kts 40°
2026-05-04 14:56 38.69826 -76.75409 9144 ft 298 kts 40°
2026-05-04 14:56 38.71154 -76.73390 8825 ft 299 kts 57°
2026-05-04 14:56 38.72165 -76.71058 8558 ft 300 kts 60°
2026-05-04 14:57 38.73152 -76.68695 8266 ft 301 kts 60°
2026-05-04 14:57 38.74147 -76.66342 7960 ft 300 kts 59°
2026-05-04 14:57 38.75150 -76.64009 7681 ft 298 kts 59°
2026-05-04 14:57 38.76150 -76.61703 7389 ft 296 kts 59°
2026-05-04 14:58 38.77184 -76.59431 7110 ft 293 kts 51°
2026-05-04 14:58 38.78691 -76.57760 6821 ft 285 kts 25°
2026-05-04 14:58 38.80533 -76.56966 6580 ft 277 kts
2026-05-04 14:58 38.82416 -76.56471 6309 ft 276 kts
2026-05-04 14:59 38.84303 -76.55992 6031 ft 277 kts
2026-05-04 14:59 38.86199 -76.55867 5761 ft 268 kts 353°
2026-05-04 14:59 38.89840 -76.56179 5239 ft 257 kts 352°
2026-05-04 15:00 38.91616 -76.56325 4983 ft 254 kts 353°
2026-05-04 15:00 38.93357 -76.56454 4822 ft 243 kts 353°
2026-05-04 15:00 38.94994 -76.56560 4661 ft 231 kts 353°
2026-05-04 15:01 38.98207 -76.56765 3901 ft 226 kts 353°
2026-05-04 15:01 38.99739 -76.56858 3637 ft 214 kts 353°
2026-05-04 15:01 39.01194 -76.56949 3368 ft 204 kts 354°
2026-05-04 15:01 39.02572 -76.57032 3084 ft 198 kts 354°
2026-05-04 15:02 39.03910 -76.57116 2894 ft 188 kts 352°
2026-05-04 15:02 39.05189 -76.57200 2615 ft 180 kts 354°
2026-05-04 15:02 39.06383 -76.57341 2457 ft 164 kts 332°
2026-05-04 15:02 39.07294 -76.58146 2388 ft 165 kts 321°
2026-05-04 15:03 39.08333 -76.58860 2148 ft 169 kts 327°
2026-05-04 15:03 39.09322 -76.59643 1923 ft 161 kts 321°
2026-05-04 15:03 39.10211 -76.60456 1685 ft 155 kts 318°
2026-05-04 15:03 39.11075 -76.61263 1482 ft 152 kts 318°
2026-05-04 15:04 39.11891 -76.62022 1330 ft 141 kts 318°
2026-05-04 15:04 39.12666 -76.62744 1105 ft 133 kts 318°
2026-05-04 15:04 39.13417 -76.63446 928 ft 135 kts 320°
2026-05-04 15:04 39.14157 -76.64131 729 ft 127 kts 320°
2026-05-04 15:05 39.14880 -76.64809 568 ft 132 kts 321°
2026-05-04 15:05 39.15608 -76.65483 397 ft 128 kts 321°
2026-05-04 15:05 39.16307 -76.66134 238 ft 121 kts 320°
2026-05-04 15:05 39.16962 -76.66741 149 ft 101 kts 321°
2026-05-04 15:06 39.17358 -76.67106 150 ft 40 kts 324°
2026-05-04 15:06 39.17550 -76.67282 146 ft 20 kts 333°
2026-05-04 15:06 39.17621 -76.67184 150 ft 13 kts 118°
2026-05-04 15:07 39.17493 -76.67028 152 ft 14 kts 121°
2026-05-04 15:07 39.17467 -76.66895 153 ft 17 kts 96°
2026-05-04 15:07 39.17457 -76.66716 153 ft 23 kts 92°
2026-05-04 15:07 39.17456 -76.66500 153 ft 23 kts 62°
2026-05-04 15:08 39.17597 -76.66373 153 ft 26 kts 33°
2026-05-04 15:08 39.17759 -76.66237 154 ft 30 kts 32°
2026-05-04 15:08 39.17945 -76.66079 152 ft 34 kts 33°
2026-05-04 15:08 39.18134 -76.66003 149 ft 28 kts 322°
2026-05-04 15:09 39.18294 -76.66156 148 ft 29 kts 323°
2026-05-04 15:09 39.18387 -76.66264 153 ft 6 kts 268°
2026-05-04 15:09 39.18359 -76.66324 155 ft 9 kts 231°
2026-05-04 15:10 39.18374 -76.66459 155 ft 9 kts 324°
2026-05-04 15:10 39.18429 -76.66512 155 ft 11 kts 325°
2026-05-04 15:10 39.18419 -76.66587 155 ft 1 kts 213°
2026-05-04 15:11 39.18407 -76.66597 155 ft 0 kts 213°